PROFILE

 METAR AND TAF INFORMATION
ADDS - METARS form results

(1507 UTC 20 June 2019)
http://aviationweather.gov/metar/data/
 
MHTG 201500Z 03010KT 9999 BKN026 SCT200 23/19 Q1019 A3009 NOSIG
TAF MHTG 201025Z 2012/2112 03006KT 8000 FEW009 BKN026 TX30/2021Z TN19/2112Z BECMG 2015/2017 9999 NSW SCT030 PROB30 TEMPO 2021/2101 8000 VCSH FEW028CB SCT030TCU SCT080 BECMG 2101/2103 9999 NSW BECMG 2106/2108 8000 VCSH FEW008 BKN024 

 AIRPORT MAP

 RUNWAY INFORMATION
Runway 02 Runway length 6112 ft Runway width 148 ft
Runway elevation 3337 ft Runway displaced threshold 670 ft Runway heading 19
Runway 20 Runway length 6112 ft Runway width 148 ft
Runway elevation 3268 ft Runway displaced threshold 0 ft Runway heading 199

 AIRPORT FREQUENCIES
Type APP Name TONCONTIN Frequency 119.1 MHZ
Type ATIS Name ATIS Frequency 112.3 MHZ
Type GND Name GND Frequency 121.9 MHZ
Type RDO Name TEGUCIGALP Frequency 126.7 MHZ
Type TWR Name TWR Frequency 118.7 MHZ

 AIRPORT NEAR NAVIGATION AIDS
Type NDB Name Picacho Frequency 334 KHZ
Type VOR-DME Name Toncontin Frequency 112300 KHZ
Type NDB Name Toncontin Frequency 405 KHZ